EW3196 Weather Reports


time (UTC)temp
C
wind
direction
speed
KPH
gust
KPH
rain 1hr
cm
rain 24hr
cm
rain mn
cm
humidity
%
barometer
mb
20260510224529 17 309 6.4 14.5 0.00 0.05 0.00 44 1019.9
20260510223028 18 360 8.0 16.1 0.00 0.05 0.00 45 1019.6
20260510221532 18 341 6.4 12.9 0.00 0.05 0.00 46 1019.6
20260510220027 18 25 6.4 12.9 0.00 0.05 0.00 45 1019.4
20260510214526 18 336 11.3 17.7 0.00 0.05 0.00 41 1019.5
20260510213025 18 319 11.3 17.7 0.00 0.05 0.00 41 1019.8
20260510211524 20 335 4.8 14.5 0.00 0.05 0.00 44 1019.6
20260510210023 20 5 4.8 19.3 0.00 0.05 0.00 43 1019.7
20260510204525 20 360 6.4 14.5 0.00 0.05 0.00 41 1019.7
20260510203023 21 27 6.4 16.1 0.00 0.05 0.00 41 1019.9
20260510201518 20 342 11.3 19.3 0.00 0.05 0.00 43 1019.9
20260510200018 20 300 8.0 19.3 0.00 0.05 0.00 43 1020.0
20260510194524 20 331 8.0 14.5 0.00 0.05 0.00 42 1019.8
20260510193015 20 289 3.2 14.5 0.00 0.05 0.00 44 1019.8
20260510191513 20 330 8.0 14.5 0.00 0.05 0.00 46 1019.9
20260510190014 18 273 4.8 17.7 0.00 0.05 0.00 43 1019.9
20260510184524 20 13 6.4 20.9 0.00 0.05 0.00 52 1019.7
20260510183007 18 330 8.0 20.9 0.00 0.05 0.00 47 1019.6
20260510181507 18 346 9.7 17.7 0.00 0.05 0.00 44 1019.6
20260510180003 18 344 8.0 17.7 0.00 0.05 0.00 47 1019.7
20260510174600 17 47 6.4 16.1 0.00 0.05 0.00 49 1019.9
20260510173056 16 9 3.2 9.7 0.00 0.05 0.00 58 1020.0
20260510171554 15 5 8.0 12.9 0.00 0.05 0.00 55 1020.1
20260510170051 15 351 3.2 8.0 0.00 0.05 0.00 64 1020.0
20260510164552 15 30 1.6 8.0 0.00 0.05 0.00 61 1020.1
20260510163050 14 13 6.4 11.3 0.00 0.05 0.00 64 1020.0
20260510161549 14 341 6.4 9.7 0.00 0.05 0.00 64 1020.0
20260510160124 13 341 3.2 9.7 0.00 0.05 0.00 66 1020.0
20260510154548 13 360 4.8 11.3 0.00 0.05 0.00 66 1020.1
20260510153048 14 342 3.2 12.9 0.00 0.05 0.00 61 1020.1
20260510151547 14 360 4.8 11.3 0.00 0.05 0.00 62 1020.1
20260510150047 13 330 3.2 6.4 0.00 0.05 0.00 64 1020.0
20260510144545 14 9 6.4 14.5 0.00 0.05 0.00 57 1019.8
20260510143045 15 12 6.4 12.9 0.00 0.05 0.00 56 1019.7
20260510141541 14 15 8.0 14.5 0.00 0.05 0.00 58 1019.5
20260510140039 15 42 11.3 20.9 0.00 0.05 0.00 55 1019.0
20260510134536 13 335 9.7 19.3 0.00 0.05 0.00 58 1018.7
20260510133034 14 19 9.7 19.3 0.00 0.05 0.00 60 1018.5
20260510131531 13 34 11.3 22.5 0.00 0.05 0.00 61 1018.2
20260510130028 13 34 8.0 14.5 0.00 0.05 0.00 63 1018.0
20260510124528 12 346 8.0 14.5 0.00 0.05 0.00 63 1018.2
20260510123023 12 9 11.3 17.7 0.00 0.05 0.00 65 1018.1
20260510121519 11 344 8.0 16.1 0.00 0.05 0.00 67 1017.7
20260510120017 11 329 8.0 14.5 0.00 0.05 0.00 69 1017.4
20260510114514 11 342 6.4 14.5 0.00 0.05 0.00 69 1017.3
20260510113011 11 342 4.8 11.3 0.00 0.05 0.00 70 1016.9
20260510111506 11 22 4.8 9.7 0.00 0.05 0.00 68 1016.4
20260510110015 12 342 6.4 12.9 0.00 0.05 0.00 68 1016.4
20260510104502 12 10 6.4 16.1 0.00 0.05 0.00 67 1016.0
20260510103105 12 360 4.8 14.5 0.00 0.05 0.00 67 1016.1
20260510101557 12 360 6.4 14.5 0.00 0.05 0.00 66 1015.7
20260510100055 13 19 8.0 12.9 0.00 0.05 0.00 67 1015.3
20260510094552 13 28 8.0 14.5 0.00 0.05 0.00 68 1015.2
20260510093101 13 329 6.4 12.9 0.00 0.05 0.00 70 1014.8
20260510091545 13 19 6.4 11.3 0.00 0.05 0.00 73 1014.7
20260510090053 13 355 8.0 11.3 0.00 0.05 0.00 74 1014.7
20260510084541 13 16 4.8 12.9 0.00 0.05 0.00 75 1014.2
20260510083039 13 5 6.4 14.5 0.00 0.05 0.00 78 1013.9
20260510081536 13 351 4.8 14.5 0.00 0.05 0.00 85 1013.9
20260510074532 13 301 6.4 12.9 0.00 0.05 0.00 90 1013.6
20260510073029 13 335 1.6 6.4 0.00 0.05 0.00 91 1013.7
20260510071528 13 340 0.0 4.8 0.00 0.05 0.00 91 1013.3
20260510070028 14 355 0.0 4.8 0.00 0.05 0.00 90 1013.3
20260510064528 14 355 0.0 3.2 0.00 0.05 0.00 91 1013.2
20260510063023 14 355 0.0 3.2 0.00 0.05 0.00 91 1013.0
20260510061521 15 25 3.2 8.0 0.00 0.05 0.00 91 1013.1
20260510060018 15 5 0.0 3.2 0.00 0.05 0.00 91 1013.0
20260510054520 15 5 1.6 6.4 0.00 0.08 0.00 91 1012.9
20260510053015 15 15 3.2 9.7 0.00 0.08 0.00 90 1012.6
20260510051513 15 30 4.8 8.0 0.00 0.08 0.00 91 1012.4
20260510050010 15 23 4.8 12.9 0.00 0.08 0.00 91 1012.3
20260510044507 15 348 4.8 9.7 0.00 0.08 0.08 92 1011.9
20260510043008 15 16 3.2 8.0 0.00 0.08 0.08 92 1011.5
20260510041505 15 348 3.2 8.0 0.00 0.08 0.08 92 1011.5
20260510040008 15 19 1.6 8.0 0.00 0.08 0.08 91 1011.3
20260510034504 15 26 1.6 4.8 0.00 0.08 0.08 92 1011.4
20260510033002 15 257 1.6 4.8 0.00 0.08 0.08 91 1011.5
20260510031600 16 345 3.2 6.4 0.00 0.08 0.08 90 1011.0
20260510030057 16 51 1.6 9.7 0.00 0.08 0.08 90 1010.5
20260510024554 16 36 3.2 9.7 0.00 0.08 0.08 89 1010.3
20260510023054 16 13 4.8 11.3 0.05 0.08 0.08 89 1010.0
20260510021552 16 331 3.2 11.3 0.05 0.08 0.08 88 1009.9
20260510020051 16 355 9.7 19.3 0.05 0.08 0.08 87 1009.6
20260510014552 17 319 9.7 29.0 0.05 0.51 0.08 83 1009.8
20260510013048 20 340 12.9 29.0 0.00 0.46 0.03 73 1009.2
20260510011555 22 206 1.6 4.8 0.00 0.46 0.03 61 1007.3
20260510010059 23 179 1.6 4.8 0.00 0.46 0.03 58 1007.0
20260510004547 23 216 3.2 9.7 0.00 1.14 0.03 57 1007.0
20260510003046 24 201 1.6 6.4 0.00 1.14 0.03 56 1007.0
20260510001546 24 215 3.2 9.7 0.00 1.14 0.03 56 1007.1
20260510000045 25 235 3.2 8.0 0.00 1.14 0.03 55 1007.0
20260509234545 25 239 1.6 6.4 0.00 1.19 0.03 56 1007.1
20260509233042 25 258 0.0 4.8 0.00 1.19 0.03 51 1007.1
20260509231542 25 278 1.6 8.0 0.00 1.19 0.03 52 1007.2
20260509230044 25 214 1.6 9.7 0.00 1.19 0.03 51 1007.2